Location: Muchchint?la
(16.9106°N, 80.2664°E)
Time: 17:59:09
(UTC+00:00)

FALCON 9 R/B - Pass Details

Date: 14 April 2024
Orbit: 191 x 12264 km, 27.0° (Epoch: 27 May)

Event Time Altitude Azimuth Distance (km) Brightness Sun altitude
Exits shadow 00:01:41 - 246° (WSW) 14,850 7.6 -6.1°
Reaches altitude 10° 00:15:45 10° 248° (WSW) 12,356 7.2 -2.8°
Maximum altitude 00:54:02 79° 336° (NNW) 2,127 4.1 6.3°
Drops below altitude 10° 01:00:48 10° 64° (ENE) 2,776 6.3 7.9°
Sets 01:02:18 0° 65° (ENE) 3,311 6.7 8.2°
